Location: Newark
(35.6799°N, 139.7636°E)
Time: 12:49:00
(UTC+00:00)

SR - All Passes

Search period start: 07 December 2019 00:00
Search period end: 17 December 2019 00:00
Orbit: 573 x 882 km, 66.7° (Epoch: 06 December)

Date Brightness Start Highest point End Pass type
(mag) Time Alt. Az. Time Alt. Az. Time Alt. Az.
07 Dec - 00:48:30 10° SSW 00:53:50 80° WNW 00:59:37 10° NNE daylight
07 Dec - 02:34:25 10° WNW 02:36:58 13° NW 02:39:32 10° NNW daylight
07 Dec - 09:32:52 10° NNW 09:38:25 43° ENE 09:43:39 10° SE visible
07 Dec - 11:15:37 10° NW 11:20:12 25° WSW 11:24:34 10° SSW visible
07 Dec - 23:59:10 10° S 00:04:16 50° ESE 00:09:48 10° NE daylight
08 Dec - 01:42:22 10° WSW 01:46:42 23° NW 01:51:15 10° N daylight
08 Dec - 08:43:47 10° N 08:48:24 23° NE 08:52:49 10° ESE visible
08 Dec - 10:25:14 10° NW 10:30:51 52° WSW 10:36:05 10° S visible
08 Dec - 23:10:43 10° SSE 23:14:55 24° ESE 23:19:23 10° NE daylight
09 Dec - 00:51:33 10° SW 00:56:41 43° WNW 01:02:11 10° NNE daylight
09 Dec - 07:55:29 10° NNE 07:58:09 13° NE 08:00:45 10° ENE visible
09 Dec - 09:35:25 10° NNW 09:41:16 79° ENE 09:46:43 10° SSE visible
09 Dec - 11:20:20 10° WNW 11:22:30 12° W 11:24:36 10° WSW visible
09 Dec - 22:24:33 10° ESE 22:25:46 11° E 22:26:59 10° E daylight
10 Dec - 00:01:32 10° SSW 00:06:54 84° WNW 00:12:42 10° NNE daylight
10 Dec - 01:47:09 10° WNW 01:49:57 14° NW 01:52:50 10° NNW daylight
10 Dec - 08:45:59 10° NNW 08:51:28 40° ENE 08:56:37 10° SE visible
10 Dec - 10:28:36 10° NW 10:33:18 27° WSW 10:37:46 10° SSW visible
10 Dec - 23:12:16 10° S 23:17:21 47° ESE 23:22:51 10° NE daylight
11 Dec - 00:55:16 10° WSW 00:59:43 25° NW 01:04:25 10° N daylight
11 Dec - 07:56:57 10° N 08:01:25 22° NE 08:05:42 10° E visible
11 Dec - 09:38:17 10° NW 09:43:56 55° WSW 09:49:10 10° S visible
11 Dec - 22:23:55 10° SSE 22:28:01 23° ESE 22:32:21 10° NE daylight
12 Dec - 00:04:32 10° SW 00:09:44 45° WNW 00:15:18 10° NNE daylight
12 Dec - 07:08:48 10° NNE 07:11:08 12° NE 07:13:26 10° ENE daylight
12 Dec - 08:48:30 10° NNW 08:54:20 74° ENE 08:59:45 10° SSE visible
12 Dec - 10:33:06 10° WNW 10:35:36 13° WSW 10:38:02 10° SW visible
12 Dec - 23:14:34 10° SSW 23:19:58 89° WNW 23:25:48 10° NNE daylight
13 Dec - 00:59:54 10° WNW 01:02:57 15° NW 01:06:06 10° NNW daylight
13 Dec - 07:59:06 10° NNW 08:04:30 38° NE 08:09:35 10° ESE visible
13 Dec - 09:41:36 10° NW 09:46:25 28° WSW 09:50:56 10° SSW visible
13 Dec - 22:25:22 10° S 22:30:26 44° ESE 22:35:53 10° NE daylight
14 Dec - 00:08:10 10° WSW 00:12:45 26° NW 00:17:34 10° N daylight
14 Dec - 07:10:07 10° N 07:14:26 21° NE 07:18:34 10° E daylight
14 Dec - 08:51:20 10° NW 08:57:01 59° WSW 09:02:16 10° S visible
14 Dec - 21:37:07 10° SSE 21:41:08 21° ESE 21:45:19 10° ENE daylight
14 Dec - 23:17:30 10° SW 23:22:46 48° WNW 23:28:25 10° NNE daylight
15 Dec - 06:22:11 10° NNE 06:24:08 12° NE 06:26:04 10° ENE daylight
15 Dec - 08:01:35 10° NNW 08:07:24 69° ENE 08:12:46 10° SE visible
15 Dec - 09:45:55 10° WNW 09:48:43 14° WSW 09:51:26 10° SW visible
15 Dec - 22:27:37 10° SSW 22:33:02 86° ESE 22:38:53 10° NNE daylight
16 Dec - 00:12:41 10° W 00:15:58 15° NW 00:19:21 10° N daylight
16 Dec - 07:12:14 10° N 07:17:33 36° NE 07:22:31 10° ESE daylight
16 Dec - 08:54:36 10° NW 08:59:30 30° WSW 09:04:06 10° SSW visible
16 Dec - 21:38:29 10° S 21:43:31 42° ESE 21:48:55 10° NE daylight
16 Dec - 23:21:05 10° WSW 23:25:47 27° NW 23:30:43 10° N daylight
